Gainesville, GA

6:51 AM EDT on August 26, 2016 (GMT -0400)
Gilmer Memorial

Weather History for KGVL - November, 2012

Change the Weather History Date:

Sunday, November 18, 2012

  Actual Average Record
Temperature  
Mean Temperature 52 °F 52 °F  
Max Temperature 61 °F 61 °F 79 °F (1958)
Min Temperature 44 °F 43 °F 20 °F (1937)
Degree Days  
Heating Degree Days 12 13  
Month to date heating degree days 192  
Since 1 July heating degree days 350  
Growing Degree Days 2 (Base 50)    
Moisture  
Dew Point 35 °F    
Average Humidity 55    
Maximum Humidity 71    
Minimum Humidity 39    
Precipitation  
Precipitation 0.00 in 0.15 in 4.09 in (1968)
Month to date precipitation 2.25  
Year to date precipitation 47.26  
Sea Level Pressure  
Sea Level Pressure 30.37 in    
Wind  
Wind Speed 11 mph (ENE)    
Max Wind Speed 14 mph    
Max Gust Speed 24 mph    
Visibility 10 miles    
Events      
T = Trace of Precipitation, MM = Missing Value Source: NWS Daily Summary

Daily Weather History Graph

Daily Weather History Graph

Search for Another Location

Airport or City:

Trip Planner

Search our weather history database for the weather conditions in past years. The results will help you decide how hot, cold, wet, or windy it might be!

Date:

Astronomy

Nov. 18, 2012 Rise Set
Actual Time 7:11 AM EST 5:29 PM EST
Civil Twilight 6:44 AM EST 5:56 PM EST
Nautical Twilight 6:14 AM EST 6:26 PM EST
Astronomical Twilight 5:44 AM EST 6:56 PM EST
Moon 11:40 AM EST (11/18) 10:44 PM EST (11/18)
Length of Visible Light 11h 11m
Length of Day
10h 17m
Waxing Crescent, 30% of the Moon is Illuminated
Nov 18
Waxing Crescent
Nov 20
First Quarter
Nov 28
Full
Dec 6
Last Quarter
Dec 13
New

Hourly Weather History & Observations

Time (EST) Temp. Windchill Dew Point Humidity Pressure Visibility Wind Dir Wind Speed Gust Speed Precip Events Conditions
12:53 AM 46.9 °F - 23.0 °F 39% 30.38 in 10.0 mi ENE 11.5 mph 19.6 mph N/A   Mostly Cloudy
2:53 AM 46.0 °F 39.9 °F 21.9 °F 39% 30.38 in 10.0 mi ENE 13.8 mph 21.9 mph N/A   Mostly Cloudy
3:53 AM 46.0 °F 41.0 °F 24.1 °F 42% 30.38 in 10.0 mi ENE 10.4 mph 19.6 mph N/A   Partly Cloudy
4:25 AM 46.4 °F 40.4 °F 24.8 °F 43% 30.38 in 10.0 mi ENE 13.8 mph 20.7 mph N/A   Overcast
4:53 AM 46.0 °F 40.2 °F 26.1 °F 46% 30.37 in 10.0 mi ENE 12.7 mph 17.3 mph N/A   Mostly Cloudy
5:10 AM 44.6 °F 38.8 °F 26.6 °F 49% 30.37 in 10.0 mi ENE 11.5 mph - N/A   Partly Cloudy
5:53 AM 45.0 °F 38.9 °F 28.0 °F 52% 30.38 in 10.0 mi ENE 12.7 mph 19.6 mph N/A   Clear
6:11 AM 46.4 °F 40.4 °F 30.2 °F 53% 30.39 in 10.0 mi ENE 13.8 mph 24.2 mph N/A   Mostly Cloudy
6:53 AM 46.9 °F - 33.1 °F 59% 30.40 in 10.0 mi ENE 12.7 mph 20.7 mph N/A   Overcast
7:46 AM 46.4 °F 40.7 °F 33.8 °F 62% 30.40 in 10.0 mi ENE 12.7 mph 20.7 mph N/A   Scattered Clouds
7:53 AM 46.9 °F - 34.0 °F 61% 30.40 in 10.0 mi ENE 11.5 mph 20.7 mph N/A   Scattered Clouds
8:35 AM 48.2 °F - 35.6 °F 62% 30.41 in 10.0 mi ENE 11.5 mph 20.7 mph N/A   Mostly Cloudy
8:48 AM 50.0 °F - 35.6 °F 58% 30.41 in 10.0 mi ENE 10.4 mph 20.7 mph N/A   Scattered Clouds
8:53 AM 50.0 °F - 36.0 °F 59% 30.41 in 10.0 mi ENE 11.5 mph - N/A   Scattered Clouds
9:53 AM 52.0 °F - 37.0 °F 57% 30.40 in 10.0 mi East 12.7 mph - N/A   Clear
10:53 AM 55.0 °F - 37.9 °F 53% 30.39 in 10.0 mi East 11.5 mph - N/A   Clear
11:53 AM 57.9 °F - 39.9 °F 51% 30.38 in 10.0 mi East 5.8 mph - N/A   Clear
12:53 PM 60.1 °F - 42.1 °F 51% 30.35 in 10.0 mi ENE 8.1 mph - N/A   Clear
1:53 PM 61.0 °F - 43.0 °F 52% 30.33 in 10.0 mi NE 9.2 mph - N/A   Overcast
2:53 PM 61.0 °F - 43.0 °F 52% 30.32 in 10.0 mi East 9.2 mph - N/A   Overcast
3:53 PM 60.1 °F - 43.0 °F 53% 30.32 in 10.0 mi ENE 10.4 mph - N/A   Mostly Cloudy
4:53 PM 59.0 °F - 42.1 °F 53% 30.33 in 10.0 mi ENE 8.1 mph - N/A   Mostly Cloudy
5:53 PM 57.0 °F - 42.1 °F 57% 30.33 in 10.0 mi East 4.6 mph - N/A   Overcast
6:53 PM 55.9 °F - 42.1 °F 60% 30.34 in 10.0 mi Calm Calm - N/A   Overcast
7:53 PM 53.1 °F - 41.0 °F 64% 30.35 in 10.0 mi East 5.8 mph - N/A   Mostly Cloudy
8:53 PM 52.0 °F - 41.0 °F 66% 30.35 in 10.0 mi East 5.8 mph - N/A   Clear
9:53 PM 52.0 °F - 39.9 °F 63% 30.35 in 10.0 mi ENE 6.9 mph - N/A   Clear
10:53 PM 50.0 °F - 39.9 °F 68% 30.33 in 10.0 mi ENE 5.8 mph - N/A   Clear
11:53 PM 48.9 °F - 39.9 °F 71% 30.33 in 10.0 mi NNE 3.5 mph - N/A   Clear